Location: Unspecified
(47.4992°N, 121.7766°W)
Time: 02:50:28
(UTC-08:00)

Cosmos 2058 - Pass Details

Date: 30 January 2021
Orbit: 561 x 584 km, 82.5° (Epoch: 24 February)

Event Time Altitude Azimuth Distance (km) Brightness Sun altitude
Rises 19:45:21 0° 197° (SSW) 2,786 6.6 -26.9°
Reaches altitude 10° 19:47:34 10° 201° (SSW) 1,889 5.7 -27.3°
Enters shadow 19:49:23 25° 210° (SSW) 1,196 4.7 -27.6°
